Location: Hopville
(44.8032°N, 123.1329°W)
Time: 03:34:44
(UTC+00:00)

USA 308 - Pass Details

Date: 24 January 2021
Orbit: 565 x 581 km, 54.0° (Epoch: 25 February)

Event Time Altitude Azimuth Distance (km) Brightness Sun altitude
Exits shadow 14:21:44 13° 238° (WSW) 1,687 4.9 -13.8°
Maximum altitude 14:25:31 81° 325° (NW) 577 2.8 -13.2°
Drops below altitude 10° 14:29:46 10° 54° (NE) 1,864 6.1 -12.4°
Sets 14:32:02 0° 55° (NE) 2,765 7.0 -12.0°
